User: anonymous
Location: Unspecified
(0.0000°N, 0.0000°E)
Time: 23:24:00
(UTC+02:00)
Language:

Cosmos 2251 - Orbit

View from above orbital plane
View from above orbital plane
View from above satellite
View from above satellite

Ground track
Ground track

The orbit data is extracted from the following two-line orbital elements,

1 22675U 93036A   14113.13293575  .00000159  00000-0  68416-4 0  2355
2 22675 074.0385 156.5566 0025238 198.4666 192.5075 14.32315853 89220
Epoch (UTC): 23 April 2014 03:11:25
Eccentricity: 0.0025238
inclination: 74.0385°
perigee height: 766 km
apogee height: 802 km
right ascension of ascending node: 156.5566°
argument of perigee: 198.4666°
revolutions per day: 14.32315853
mean anomaly at epoch: 192.5075°
orbit number at epoch: 8922

The dashed part of the orbit path shows where the satellite is in the earth's shadow,  

DLR